| time (UTC) | temp F | wind direction | speed MPH | gust MPH | rain 1hr in | rain 24hr in | rain mn in | humidity % | barometer mb |
| 20260507195505 | 49 | 62 | 2.0 | 5.0 | 0.00 | 0.00 | 0.00 | 67 | 1009.1 |
| 20260507195006 | 49 | 52 | 2.0 | 5.0 | 0.00 | 0.00 | 0.00 | 67 | 1009.1 |
| 20260507194506 | 49 | 12 | 2.0 | 5.0 | 0.00 | 0.00 | 0.00 | 67 | 1009.1 |
| 20260507193507 | 49 | 21 | 0.0 | 5.0 | 0.00 | 0.00 | 0.00 | 69 | 1010.1 |
| 20260507193007 | 48 | 41 | 0.0 | 5.0 | 0.00 | 0.00 | 0.00 | 70 | 1010.1 |
| 20260507192007 | 47 | 93 | 5.0 | 7.0 | 0.00 | 0.00 | 0.00 | 70 | 1010.1 |
| 20260507191506 | 48 | 90 | 3.0 | 5.0 | 0.00 | 0.00 | 0.00 | 71 | 1010.1 |
| 20260507190507 | 48 | 90 | 3.0 | 5.0 | 0.00 | 0.00 | 0.00 | 72 | 1010.1 |
| 20260507190006 | 47 | 84 | 5.0 | 5.0 | 0.00 | 0.00 | 0.00 | 72 | 1010.1 |
| 20260507185506 | 47 | 78 | 5.0 | 5.0 | 0.00 | 0.00 | 0.00 | 72 | 1010.1 |
| 20260507184506 | 47 | 45 | 2.0 | 5.0 | 0.00 | 0.00 | 0.00 | 72 | 1010.1 |
| 20260507184007 | 47 | 49 | 2.0 | 5.0 | 0.00 | 0.00 | 0.00 | 71 | 1010.1 |
| 20260507183507 | 47 | 54 | 2.0 | 5.0 | 0.00 | 0.00 | 0.00 | 71 | 1010.1 |
| 20260507183006 | 47 | 47 | 5.0 | 5.0 | 0.00 | 0.00 | 0.00 | 71 | 1010.1 |
| 20260507182506 | 47 | 52 | 5.0 | 5.0 | 0.00 | 0.00 | 0.00 | 71 | 1010.1 |
| 20260507182007 | 46 | 35 | 5.0 | 7.0 | 0.00 | 0.00 | 0.00 | 71 | 1010.1 |
| 20260507181506 | 46 | 24 | 5.0 | 7.0 | 0.00 | 0.00 | 0.00 | 71 | 1010.1 |
| 20260507181006 | 46 | 21 | 5.0 | 7.0 | 0.00 | 0.00 | 0.00 | 71 | 1010.1 |
| 20260507180507 | 46 | 23 | 5.0 | 7.0 | 0.00 | 0.00 | 0.00 | 71 | 1010.1 |
| 20260507180006 | 47 | 19 | 5.0 | 7.0 | 0.00 | 0.00 | 0.00 | 71 | 1010.1 |
| 20260507175506 | 47 | 31 | 5.0 | 7.0 | 0.00 | 0.00 | 0.00 | 71 | 1010.1 |
| 20260507175007 | 47 | 31 | 5.0 | 5.0 | 0.00 | 0.00 | 0.00 | 71 | 1010.1 |
| 20260507174505 | 47 | 26 | 5.0 | 5.0 | 0.00 | 0.00 | 0.00 | 71 | 1010.1 |
| 20260507173006 | 47 | 13 | 5.0 | 9.0 | 0.00 | 0.00 | 0.00 | 72 | 1010.1 |
| 20260507172505 | 47 | 15 | 5.0 | 9.0 | 0.00 | 0.00 | 0.00 | 71 | 1010.1 |
| 20260507170506 | 46 | 18 | 7.0 | 9.0 | 0.00 | 0.00 | 0.00 | 72 | 1010.1 |
| 20260507170006 | 47 | 18 | 5.0 | 9.0 | 0.00 | 0.00 | 0.00 | 72 | 1010.9 |
| 20260507165505 | 46 | 0 | 6.0 | 12.0 | 0.00 | 0.00 | 0.00 | 72 | 1011.1 |
| 20260507165006 | 47 | 322 | 5.0 | 12.0 | 0.00 | 0.00 | 0.00 | 72 | 1011.1 |
| 20260507164505 | 47 | 341 | 5.0 | 9.0 | 0.00 | 0.00 | 0.00 | 72 | 1011.1 |
| 20260507164007 | 47 | 340 | 5.0 | 7.0 | 0.00 | 0.00 | 0.00 | 72 | 1011.1 |
| 20260507163506 | 47 | 330 | 3.0 | 7.0 | 0.00 | 0.00 | 0.00 | 72 | 1011.1 |
| 20260507163007 | 47 | 26 | 5.0 | 9.0 | 0.00 | 0.00 | 0.00 | 72 | 1011.1 |
| 20260507162506 | 47 | 350 | 7.0 | 9.0 | 0.00 | 0.00 | 0.00 | 72 | 1011.1 |
| 20260507162006 | 47 | 13 | 6.0 | 9.0 | 0.00 | 0.00 | 0.00 | 72 | 1011.3 |
| 20260507161505 | 47 | 11 | 7.0 | 9.0 | 0.00 | 0.00 | 0.00 | 72 | 1011.1 |
| 20260507161007 | 46 | 8 | 7.0 | 9.0 | 0.00 | 0.00 | 0.00 | 72 | 1011.6 |
| 20260507160506 | 47 | 20 | 7.0 | 9.0 | 0.00 | 0.00 | 0.00 | 72 | 1012.1 |
| 20260507160006 | 47 | 22 | 6.0 | 9.0 | 0.00 | 0.00 | 0.00 | 72 | 1012.1 |
| 20260507154506 | 47 | 16 | 7.0 | 9.0 | 0.00 | 0.00 | 0.00 | 71 | 1012.1 |
| 20260507154008 | 47 | 13 | 7.0 | 9.0 | 0.00 | 0.00 | 0.00 | 71 | 1012.1 |
| 20260507153506 | 47 | 26 | 7.0 | 9.0 | 0.00 | 0.00 | 0.00 | 71 | 1012.1 |
| 20260507153006 | 47 | 13 | 7.0 | 12.0 | 0.00 | 0.00 | 0.00 | 71 | 1012.1 |
| 20260507152007 | 47 | 19 | 7.0 | 9.0 | 0.00 | 0.00 | 0.00 | 70 | 1012.1 |
| 20260507151506 | 48 | 14 | 5.0 | 7.0 | 0.00 | 0.00 | 0.00 | 69 | 1012.1 |
| 20260507151006 | 48 | 19 | 5.0 | 5.0 | 0.00 | 0.00 | 0.00 | 69 | 1012.1 |
| 20260507150506 | 48 | 36 | 5.0 | 5.0 | 0.00 | 0.00 | 0.00 | 69 | 1012.1 |
| 20260507150006 | 48 | 38 | 5.0 | 5.0 | 0.00 | 0.00 | 0.00 | 69 | 1012.1 |
| 20260507145505 | 48 | 34 | 2.0 | 5.0 | 0.00 | 0.00 | 0.00 | 70 | 1012.1 |
| 20260507145007 | 48 | 29 | 4.0 | 5.0 | 0.00 | 0.00 | 0.00 | 70 | 1012.1 |
| 20260507144506 | 47 | 14 | 5.0 | 7.0 | 0.00 | 0.00 | 0.00 | 69 | 1012.1 |
| 20260507143506 | 47 | 32 | 5.0 | 7.0 | 0.00 | 0.00 | 0.00 | 69 | 1012.1 |
| 20260507143006 | 47 | 19 | 5.0 | 9.0 | 0.00 | 0.00 | 0.00 | 69 | 1012.1 |
| 20260507142505 | 47 | 15 | 5.0 | 9.0 | 0.00 | 0.00 | 0.00 | 69 | 1012.1 |
| 20260507142005 | 48 | 329 | 5.0 | 9.0 | 0.00 | 0.00 | 0.00 | 69 | 1012.1 |
| 20260507141505 | 48 | 25 | 5.0 | 7.0 | 0.00 | 0.00 | 0.00 | 69 | 1012.1 |
| 20260507141007 | 48 | 30 | 3.0 | 7.0 | 0.00 | 0.00 | 0.00 | 69 | 1012.1 |
| 20260507140506 | 49 | 31 | 2.0 | 5.0 | 0.00 | 0.00 | 0.00 | 70 | 1012.1 |
| 20260507140006 | 48 | 357 | 2.0 | 7.0 | 0.00 | 0.00 | 0.00 | 70 | 1012.1 |
| 20260507135006 | 47 | 235 | 4.0 | 7.0 | 0.00 | 0.00 | 0.00 | 71 | 1012.1 |
| 20260507134506 | 47 | 263 | 5.0 | 7.0 | 0.00 | 0.00 | 0.00 | 72 | 1012.1 |
| 20260507134006 | 46 | 295 | 5.0 | 7.0 | 0.00 | 0.00 | 0.00 | 72 | 1012.1 |
| 20260507133506 | 46 | 243 | 5.0 | 7.0 | 0.00 | 0.00 | 0.00 | 72 | 1012.1 |
| 20260507133006 | 46 | 265 | 5.0 | 7.0 | 0.00 | 0.00 | 0.00 | 72 | 1012.1 |
| 20260507132506 | 46 | 295 | 4.0 | 7.0 | 0.00 | 0.00 | 0.00 | 73 | 1012.1 |
| 20260507132007 | 45 | 332 | 5.0 | 7.0 | 0.00 | 0.00 | 0.00 | 73 | 1012.2 |
| 20260507131505 | 45 | 271 | 3.0 | 7.0 | 0.00 | 0.00 | 0.00 | 73 | 1012.6 |
| 20260507131006 | 45 | 296 | 5.0 | 7.0 | 0.00 | 0.00 | 0.00 | 73 | 1013.1 |
| 20260507130506 | 45 | 279 | 5.0 | 7.0 | 0.00 | 0.00 | 0.00 | 73 | 1013.0 |
| 20260507130005 | 45 | 283 | 5.0 | 7.0 | 0.00 | 0.00 | 0.00 | 73 | 1013.0 |
| 20260507125506 | 44 | 294 | 5.0 | 7.0 | 0.00 | 0.00 | 0.00 | 73 | 1013.1 |
| 20260507125006 | 44 | 266 | 5.0 | 9.0 | 0.00 | 0.00 | 0.00 | 73 | 1012.6 |
| 20260507124006 | 44 | 290 | 6.0 | 9.0 | 0.00 | 0.00 | 0.00 | 73 | 1012.1 |
| 20260507123506 | 44 | 279 | 5.0 | 9.0 | 0.00 | 0.00 | 0.00 | 73 | 1012.6 |
| 20260507123006 | 44 | 310 | 5.0 | 7.0 | 0.00 | 0.00 | 0.00 | 73 | 1012.1 |
| 20260507122505 | 44 | 295 | 5.0 | 9.0 | 0.00 | 0.00 | 0.00 | 72 | 1012.5 |
| 20260507122006 | 44 | 327 | 5.0 | 9.0 | 0.00 | 0.00 | 0.00 | 73 | 1013.1 |
| 20260507121506 | 44 | 300 | 6.0 | 7.0 | 0.00 | 0.00 | 0.00 | 73 | 1012.6 |
| 20260507120506 | 44 | 314 | 5.0 | 9.0 | 0.00 | 0.00 | 0.00 | 75 | 1013.1 |
| 20260507120006 | 44 | 314 | 5.0 | 7.0 | 0.00 | 0.00 | 0.00 | 77 | 1013.1 |
| 20260507115505 | 44 | 347 | 2.0 | 7.0 | 0.00 | 0.00 | 0.00 | 78 | 1012.1 |
| 20260507114006 | 44 | 295 | 5.0 | 7.0 | 0.00 | 0.00 | 0.00 | 85 | 1012.1 |
| 20260507113506 | 43 | 310 | 4.0 | 5.0 | 0.00 | 0.00 | 0.00 | 86 | 1012.1 |
| 20260507112505 | 43 | 280 | 2.0 | 5.0 | 0.00 | 0.00 | 0.00 | 87 | 1012.1 |
| 20260507112006 | 43 | 302 | 2.0 | 5.0 | 0.00 | 0.00 | 0.00 | 88 | 1012.1 |
| 20260507111506 | 43 | 272 | 3.0 | 5.0 | 0.00 | 0.00 | 0.00 | 88 | 1012.1 |
| 20260507111007 | 42 | 253 | 5.0 | 5.0 | 0.00 | 0.00 | 0.00 | 89 | 1012.1 |
| 20260507110505 | 42 | 271 | 5.0 | 7.0 | 0.00 | 0.00 | 0.00 | 89 | 1012.1 |
| 20260507110006 | 42 | 262 | 5.0 | 7.0 | 0.00 | 0.00 | 0.00 | 89 | 1012.1 |
| 20260507105006 | 42 | 265 | 6.0 | 7.0 | 0.00 | 0.00 | 0.00 | 89 | 1012.1 |
| 20260507104507 | 42 | 269 | 6.0 | 7.0 | 0.00 | 0.00 | 0.00 | 89 | 1012.1 |
| 20260507104008 | 42 | 270 | 5.0 | 7.0 | 0.00 | 0.00 | 0.00 | 89 | 1012.1 |
| 20260507103508 | 42 | 265 | 5.0 | 5.0 | 0.00 | 0.00 | 0.00 | 89 | 1012.1 |
| 20260507103008 | 42 | 266 | 5.0 | 5.0 | 0.00 | 0.00 | 0.00 | 89 | 1012.1 |
| 20260507102508 | 42 | 275 | 5.0 | 7.0 | 0.00 | 0.00 | 0.00 | 89 | 1012.1 |
| 20260507102008 | 42 | 277 | 5.0 | 7.0 | 0.00 | 0.00 | 0.00 | 89 | 1012.1 |
| 20260507101507 | 42 | 267 | 6.0 | 7.0 | 0.00 | 0.00 | 0.00 | 89 | 1012.1 |
| 20260507101008 | 42 | 259 | 7.0 | 7.0 | 0.00 | 0.00 | 0.00 | 89 | 1012.1 |
| 20260507100508 | 42 | 263 | 5.0 | 7.0 | 0.00 | 0.00 | 0.00 | 89 | 1012.1 |
| 20260507095008 | 42 | 257 | 7.0 | 7.0 | 0.00 | 0.00 | 0.00 | 89 | 1012.1 |
| 20260507094507 | 42 | 261 | 5.0 | 7.0 | 0.00 | 0.00 | 0.00 | 89 | 1012.1 |
| 20260507093508 | 42 | 252 | 5.0 | 7.0 | 0.00 | 0.00 | 0.00 | 89 | 1012.1 |
| 20260507093008 | 42 | 245 | 5.0 | 7.0 | 0.00 | 0.00 | 0.00 | 89 | 1012.1 |
| 20260507092008 | 42 | 246 | 5.0 | 7.0 | 0.00 | 0.00 | 0.00 | 89 | 1012.1 |
| 20260507091008 | 42 | 245 | 5.0 | 7.0 | 0.00 | 0.00 | 0.00 | 89 | 1012.1 |
| 20260507090007 | 42 | 260 | 5.0 | 5.0 | 0.00 | 0.00 | 0.00 | 89 | 1012.1 |
| 20260507085508 | 42 | 275 | 2.0 | 5.0 | 0.00 | 0.00 | 0.00 | 89 | 1012.1 |
| 20260507085008 | 42 | 245 | 2.0 | 5.0 | 0.00 | 0.00 | 0.00 | 89 | 1012.1 |
| 20260507084507 | 42 | 268 | 2.0 | 5.0 | 0.00 | 0.00 | 0.00 | 89 | 1012.1 |
| 20260507084008 | 42 | 254 | 5.0 | 5.0 | 0.00 | 0.00 | 0.00 | 89 | 1012.1 |
| 20260507083508 | 42 | 253 | 5.0 | 5.0 | 0.00 | 0.00 | 0.00 | 89 | 1012.1 |
| 20260507083008 | 42 | 254 | 5.0 | 5.0 | 0.00 | 0.00 | 0.00 | 89 | 1012.1 |
| 20260507082507 | 42 | 247 | 5.0 | 5.0 | 0.00 | 0.00 | 0.00 | 88 | 1012.1 |
| 20260507082008 | 42 | 256 | 5.0 | 5.0 | 0.00 | 0.00 | 0.00 | 87 | 1012.1 |
| 20260507081507 | 42 | 241 | 5.0 | 5.0 | 0.00 | 0.00 | 0.00 | 87 | 1012.1 |
| 20260507081008 | 42 | 260 | 5.0 | 5.0 | 0.00 | 0.00 | 0.00 | 86 | 1012.1 |
| 20260507080508 | 42 | 259 | 5.0 | 5.0 | 0.00 | 0.00 | 0.00 | 86 | 1012.1 |
| 20260507080007 | 42 | 255 | 5.0 | 5.0 | 0.00 | 0.00 | 0.00 | 85 | 1012.1 |
| 20260507075507 | 42 | 230 | 5.0 | 5.0 | 0.00 | 0.00 | 0.00 | 86 | 1012.1 |
| 20260507075007 | 43 | 259 | 5.0 | 7.0 | 0.00 | 0.00 | 0.00 | 86 | 1012.1 |
| 20260507074507 | 42 | 248 | 5.0 | 7.0 | 0.00 | 0.00 | 0.00 | 87 | 1012.1 |
| 20260507074007 | 42 | 236 | 5.0 | 7.0 | 0.00 | 0.00 | 0.00 | 87 | 1012.1 |
| 20260507073508 | 42 | 232 | 5.0 | 7.0 | 0.00 | 0.00 | 0.00 | 87 | 1012.1 |
| 20260507073009 | 42 | 253 | 5.0 | 7.0 | 0.00 | 0.00 | 0.00 | 87 | 1012.1 |
| 20260507072008 | 43 | 267 | 5.0 | 7.0 | 0.00 | 0.00 | 0.00 | 87 | 1012.1 |
| 20260507071507 | 43 | 259 | 6.0 | 7.0 | 0.00 | 0.00 | 0.00 | 87 | 1012.1 |
| 20260507071007 | 43 | 264 | 7.0 | 7.0 | 0.00 | 0.00 | 0.00 | 87 | 1012.1 |
| 20260507070508 | 43 | 263 | 7.0 | 9.0 | 0.00 | 0.00 | 0.00 | 88 | 1012.1 |
| 20260507070010 | 43 | 269 | 7.0 | 9.0 | 0.00 | 0.00 | 0.00 | 88 | 1012.1 |
| 20260507065506 | 43 | 261 | 7.0 | 9.0 | 0.00 | 0.00 | 0.00 | 89 | 1012.1 |
| 20260507065008 | 43 | 273 | 7.0 | 9.0 | 0.00 | 0.00 | 0.00 | 89 | 1012.1 |
| 20260507064507 | 43 | 264 | 7.0 | 9.0 | 0.00 | 0.00 | 0.00 | 89 | 1012.1 |
| 20260507064007 | 43 | 266 | 7.0 | 9.0 | 0.00 | 0.00 | 0.00 | 89 | 1012.1 |
| 20260507063507 | 43 | 269 | 7.0 | 9.0 | 0.00 | 0.00 | 0.00 | 90 | 1012.1 |
| 20260507063007 | 43 | 260 | 7.0 | 7.0 | 0.00 | 0.00 | 0.00 | 90 | 1012.1 |
| 20260507062507 | 43 | 255 | 7.0 | 7.0 | 0.00 | 0.00 | 0.00 | 90 | 1012.1 |
| 20260507062008 | 43 | 275 | 7.0 | 7.0 | 0.00 | 0.00 | 0.00 | 91 | 1012.1 |
| 20260507061507 | 44 | 261 | 7.0 | 7.0 | 0.00 | 0.00 | 0.00 | 91 | 1012.1 |
| 20260507061008 | 44 | 263 | 7.0 | 9.0 | 0.00 | 0.00 | 0.00 | 91 | 1012.1 |
| 20260507060007 | 44 | 263 | 7.0 | 9.0 | 0.00 | 0.00 | 0.00 | 92 | 1012.1 |
| 20260507055007 | 44 | 254 | 7.0 | 7.0 | 0.00 | 0.00 | 0.00 | 92 | 1012.1 |
| 20260507054507 | 44 | 266 | 7.0 | 9.0 | 0.00 | 0.00 | 0.00 | 92 | 1012.1 |
| 20260507054008 | 44 | 258 | 7.0 | 9.0 | 0.00 | 0.00 | 0.00 | 92 | 1012.1 |
| 20260507053508 | 44 | 242 | 7.0 | 9.0 | 0.00 | 0.00 | 0.00 | 92 | 1012.1 |
| 20260507053008 | 44 | 239 | 7.0 | 9.0 | 0.00 | 0.00 | 0.00 | 92 | 1012.1 |
| 20260507052507 | 44 | 250 | 7.0 | 9.0 | 0.00 | 0.00 | 0.00 | 92 | 1012.1 |
| 20260507052007 | 44 | 250 | 7.0 | 9.0 | 0.00 | 0.00 | 0.00 | 92 | 1012.1 |
| 20260507051507 | 44 | 253 | 7.0 | 9.0 | 0.00 | 0.00 | 0.00 | 92 | 1012.1 |
| 20260507050507 | 44 | 240 | 9.0 | 9.0 | 0.00 | 0.00 | 0.00 | 92 | 1012.8 |
| 20260507045007 | 44 | 252 | 7.0 | 7.0 | 0.00 | 0.00 | 0.00 | 92 | 1012.1 |
| 20260507044008 | 44 | 262 | 7.0 | 7.0 | 0.00 | 0.00 | 0.00 | 92 | 1012.1 |
| 20260507043508 | 44 | 252 | 7.0 | 7.0 | 0.00 | 0.00 | 0.00 | 92 | 1012.4 |
| 20260507043008 | 44 | 261 | 7.0 | 7.0 | 0.00 | 0.00 | 0.00 | 92 | 1012.1 |
| 20260507042507 | 44 | 269 | 7.0 | 7.0 | 0.00 | 0.00 | 0.00 | 92 | 1012.1 |
| 20260507042007 | 44 | 265 | 5.0 | 7.0 | 0.00 | 0.00 | 0.00 | 92 | 1012.1 |
| 20260507041007 | 44 | 263 | 7.0 | 9.0 | 0.00 | 0.00 | 0.00 | 93 | 1012.1 |
| 20260507040507 | 44 | 265 | 7.0 | 9.0 | 0.00 | 0.00 | 0.00 | 93 | 1012.1 |
| 20260507040007 | 45 | 265 | 7.0 | 9.0 | 0.00 | 0.00 | 0.00 | 93 | 1012.1 |
| 20260507035507 | 45 | 264 | 7.0 | 9.0 | 0.00 | 0.00 | 0.00 | 94 | 1012.1 |
| 20260507035007 | 45 | 271 | 7.0 | 9.0 | 0.00 | 0.00 | 0.00 | 95 | 1012.1 |
| 20260507034506 | 45 | 274 | 7.0 | 9.0 | 0.00 | 0.00 | 0.00 | 95 | 1012.1 |
| 20260507034008 | 45 | 270 | 7.0 | 9.0 | 0.00 | 0.00 | 0.00 | 96 | 1012.1 |
| 20260507033508 | 45 | 253 | 7.0 | 9.0 | 0.00 | 0.00 | 0.00 | 96 | 1012.1 |
| 20260507033007 | 45 | 265 | 8.0 | 9.0 | 0.00 | 0.00 | 0.00 | 97 | 1012.1 |
| 20260507032507 | 45 | 261 | 9.0 | 9.0 | 0.00 | 0.00 | 0.00 | 97 | 1012.1 |
| 20260507032007 | 45 | 264 | 7.0 | 9.0 | 0.00 | 0.00 | 0.00 | 97 | 1012.1 |
| 20260507031507 | 45 | 265 | 9.0 | 9.0 | 0.00 | 0.00 | 0.00 | 97 | 1012.1 |
| 20260507031008 | 45 | 256 | 9.0 | 9.0 | 0.00 | 0.00 | 0.00 | 98 | 1012.1 |
| 20260507030507 | 45 | 270 | 9.0 | 9.0 | 0.00 | 0.00 | 0.00 | 98 | 1012.1 |
| 20260507030006 | 45 | 259 | 9.0 | 9.0 | 0.00 | 0.00 | 0.00 | 99 | 1012.1 |
| 20260507025507 | 45 | 266 | 7.0 | 9.0 | 0.00 | 0.00 | 0.00 | 99 | 1012.1 |
| 20260507025008 | 45 | 269 | 7.0 | 9.0 | 0.00 | 0.00 | 0.00 | 99 | 1012.1 |
| 20260507024507 | 45 | 275 | 7.0 | 9.0 | 0.00 | 0.00 | 0.00 | 99 | 1012.1 |
| 20260507024008 | 45 | 292 | 7.0 | 9.0 | 0.00 | 0.00 | 0.00 | 99 | 1012.1 |
| 20260507023507 | 45 | 275 | 7.0 | 9.0 | 0.00 | 0.00 | 0.00 | 99 | 1012.1 |
| 20260507023007 | 45 | 271 | 7.0 | 9.0 | 0.00 | 0.00 | 0.00 | 99 | 1012.1 |
| 20260507022507 | 45 | 258 | 7.0 | 9.0 | 0.00 | 0.00 | 0.00 | 99 | 1012.1 |
| 20260507022006 | 45 | 262 | 7.0 | 9.0 | 0.00 | 0.00 | 0.00 | 99 | 1012.1 |
| 20260507021507 | 44 | 263 | 7.0 | 9.0 | 0.00 | 0.00 | 0.00 | 99 | 1012.1 |
| 20260507021007 | 44 | 263 | 7.0 | 9.0 | 0.00 | 0.00 | 0.00 | 99 | 1012.1 |
| 20260507020507 | 45 | 250 | 9.0 | 9.0 | 0.00 | 0.00 | 0.00 | 99 | 1012.1 |
| 20260507020006 | 44 | 254 | 9.0 | 12.0 | 0.00 | 0.00 | 0.00 | 99 | 1012.1 |
| 20260507015507 | 44 | 245 | 9.0 | 12.0 | 0.00 | 0.00 | 0.00 | 99 | 1012.1 |
| 20260507015007 | 44 | 258 | 9.0 | 12.0 | 0.00 | 0.00 | 0.00 | 99 | 1012.1 |
| 20260507014507 | 44 | 253 | 9.0 | 12.0 | 0.00 | 0.00 | 0.00 | 99 | 1012.1 |
| 20260507013508 | 44 | 245 | 9.0 | 12.0 | 0.00 | 0.00 | 0.00 | 99 | 1012.1 |
| 20260507012506 | 44 | 233 | 9.0 | 9.0 | 0.00 | 0.00 | 0.00 | 99 | 1012.1 |
| 20260507012008 | 44 | 247 | 9.0 | 9.0 | 0.00 | 0.00 | 0.00 | 99 | 1012.1 |
| 20260507011506 | 44 | 250 | 9.0 | 9.0 | 0.00 | 0.00 | 0.00 | 99 | 1012.1 |
| 20260507010507 | 44 | 242 | 7.0 | 9.0 | 0.00 | 0.00 | 0.00 | 99 | 1012.1 |
| 20260507010006 | 44 | 250 | 7.0 | 9.0 | 0.00 | 0.00 | 0.00 | 99 | 1012.1 |
| 20260507005506 | 44 | 238 | 7.0 | 9.0 | 0.00 | 0.00 | 0.00 | 99 | 1012.1 |
| 20260507005007 | 44 | 260 | 7.0 | 9.0 | 0.00 | 0.00 | 0.00 | 99 | 1012.1 |
| 20260507004506 | 44 | 263 | 7.0 | 9.0 | 0.00 | 0.00 | 0.00 | 98 | 1012.1 |
| 20260507004007 | 44 | 280 | 7.0 | 9.0 | 0.00 | 0.00 | 0.00 | 98 | 1012.1 |
| 20260507003507 | 44 | 266 | 7.0 | 9.0 | 0.00 | 0.00 | 0.00 | 98 | 1012.1 |
| 20260507002507 | 44 | 279 | 6.0 | 7.0 | 0.00 | 0.00 | 0.00 | 97 | 1012.1 |
| 20260507002007 | 44 | 305 | 5.0 | 9.0 | 0.00 | 0.00 | 0.00 | 97 | 1012.1 |
| 20260507001506 | 43 | 292 | 5.0 | 9.0 | 0.00 | 0.00 | 0.00 | 97 | 1012.0 |
| 20260507000507 | 43 | 305 | 4.0 | 7.0 | 0.00 | 0.00 | 0.00 | 97 | 1011.2 |
| 20260507000006 | 43 | 302 | 5.0 | 7.0 | 0.00 | 0.00 | 0.00 | 97 | 1011.1 |
| 20260506235507 | 43 | 303 | 4.0 | 7.0 | 0.00 | 0.00 | 0.00 | 97 | 1011.1 |
| 20260506235007 | 43 | 281 | 5.0 | 9.0 | 0.00 | 0.00 | 0.00 | 97 | 1011.1 |
| 20260506234507 | 43 | 288 | 5.0 | 14.0 | 0.00 | 0.00 | 0.00 | 97 | 1011.1 |
| 20260506234007 | 43 | 303 | 5.0 | 14.0 | 0.00 | 0.00 | 0.00 | 96 | 1010.1 |
| 20260506233506 | 44 | 307 | 5.0 | 9.0 | 0.00 | 0.00 | 0.00 | 96 | 1011.1 |
| 20260506233007 | 44 | 331 | 5.0 | 9.0 | 0.00 | 0.00 | 0.00 | 96 | 1010.1 |
| 20260506232506 | 45 | 287 | 2.0 | 7.0 | 0.00 | 0.00 | 0.00 | 97 | 1010.6 |
| 20260506232007 | 45 | 323 | 1.0 | 5.0 | 0.00 | 0.00 | 0.00 | 97 | 1010.1 |
| 20260506231507 | 45 | 352 | 2.0 | 5.0 | 0.00 | 0.00 | 0.00 | 97 | 1010.1 |
| 20260506230507 | 45 | 20 | 5.0 | 5.0 | 0.00 | 0.00 | 0.00 | 97 | 1010.1 |
| 20260506230007 | 45 | 14 | 2.0 | 5.0 | 0.00 | 0.00 | 0.00 | 97 | 1010.1 |
| 20260506225007 | 46 | 52 | 5.0 | 5.0 | 0.00 | 0.00 | 0.00 | 97 | 1010.1 |
| 20260506224506 | 46 | 46 | 2.0 | 5.0 | 0.00 | 0.00 | 0.00 | 97 | 1009.1 |
| 20260506224007 | 46 | 70 | 2.0 | 5.0 | 0.00 | 0.00 | 0.00 | 97 | 1009.1 |
| 20260506223506 | 46 | 84 | 2.0 | 5.0 | 0.00 | 0.00 | 0.00 | 97 | 1010.1 |
| 20260506222507 | 47 | 90 | 2.0 | 5.0 | 0.00 | 0.00 | 0.00 | 98 | 1009.1 |
| 20260506221506 | 47 | 125 | 2.0 | 5.0 | 0.00 | 0.00 | 0.00 | 99 | 1009.1 |
| 20260506221007 | 46 | 121 | 2.0 | 5.0 | 0.00 | 0.00 | 0.00 | 99 | 1009.1 |
| 20260506220506 | 46 | 115 | 0.0 | 5.0 | 0.00 | 0.00 | 0.00 | 99 | 1009.1 |
| 20260506215507 | 46 | 121 | 2.0 | 5.0 | 0.00 | 0.00 | 0.00 | 100 | 1009.1 |
| 20260506215007 | 46 | 121 | 2.0 | 7.0 | 0.00 | 0.00 | 0.00 | 100 | 1009.1 |
| 20260506214507 | 46 | 127 | 3.0 | 7.0 | 0.00 | 0.00 | 0.00 | 100 | 1009.1 |
| 20260506214007 | 46 | 118 | 5.0 | 7.0 | 0.00 | 0.00 | 0.00 | 100 | 1009.1 |
| 20260506213507 | 46 | 112 | 5.0 | 7.0 | 0.00 | 0.00 | 0.00 | 100 | 1009.1 |
| 20260506213006 | 46 | 103 | 5.0 | 7.0 | 0.00 | 0.00 | 0.00 | 100 | 1009.1 |
| 20260506212506 | 46 | 101 | 6.0 | 9.0 | 0.00 | 0.00 | 0.00 | 100 | 1009.1 |
| 20260506212007 | 45 | 96 | 7.0 | 9.0 | 0.00 | 0.00 | 0.00 | 100 | 1009.1 |
| 20260506211507 | 46 | 94 | 6.0 | 9.0 | 0.00 | 0.00 | 0.00 | 100 | 1009.1 |
| 20260506211007 | 45 | 101 | 7.0 | 9.0 | 0.00 | 0.00 | 0.00 | 100 | 1009.1 |
| 20260506210507 | 46 | 101 | 7.0 | 9.0 | 0.00 | 0.00 | 0.00 | 100 | 1009.1 |
| 20260506210006 | 46 | 101 | 7.0 | 9.0 | 0.00 | 0.00 | 0.00 | 100 | 1009.1 |
| 20260506205506 | 46 | 92 | 5.0 | 9.0 | 0.00 | 0.00 | 0.00 | 100 | 1009.1 |
| 20260506205008 | 46 | 92 | 5.0 | 9.0 | 0.00 | 0.00 | 0.00 | 100 | 1009.1 |
| 20260506204506 | 46 | 69 | 5.0 | 9.0 | 0.00 | 0.00 | 0.00 | 100 | 1009.1 |
| 20260506204007 | 46 | 86 | 5.0 | 7.0 | 0.00 | 0.00 | 0.00 | 100 | 1009.1 |
| 20260506203506 | 46 | 103 | 5.0 | 7.0 | 0.00 | 0.00 | 0.00 | 100 | 1009.1 |
| 20260506203007 | 46 | 87 | 5.0 | 7.0 | 0.00 | 0.00 | 0.00 | 100 | 1009.1 |
| 20260506202507 | 47 | 91 | 2.0 | 7.0 | 0.00 | 0.00 | 0.00 | 100 | 1009.1 |
| 20260506202007 | 47 | 117 | 5.0 | 7.0 | 0.00 | 0.00 | 0.00 | 100 | 1009.1 |
| 20260506201506 | 47 | 100 | 2.0 | 5.0 | 0.00 | 0.00 | 0.00 | 100 | 1009.1 |
| 20260506201007 | 47 | 106 | 2.0 | 7.0 | 0.00 | 0.00 | 0.00 | 100 | 1009.1 |
| 20260506200507 | 47 | 124 | 2.0 | 7.0 | 0.00 | 0.00 | 0.00 | 100 | 1009.1 |
| 20260506200006 | 47 | 105 | 5.0 | 7.0 | 0.00 | 0.00 | 0.00 | 100 | 1009.1 |